sat.trackr.live / text

‹ back to catalog

FFLY02

NORAD 65322 · 2025-188H

PAYLOAD ACTIVE UNKNOWN

§ Identity

Operator
Country
IND
Launch date
2025-08-26
Launch site
AFWTR
Launch vehicle
Mass (kg)
RCS (m²)

External: N2YO · Heavens-Above · Gunter

§ Orbital elements

Epoch: 2026-09-20T20:55:48.746208Z

Period
96.46 min
Inclination
97.7291°
Eccentricity
0.0013056
Mean motion
14.92850087 rev/d
Perigee alt
580.0 km
Apogee alt
598.2 km
Semi-major
6,967.2 km
B*
6.6524e-5
RAAN
337.4478°
Arg perigee
160.6487°
Mean anomaly
199.5231°
Rev number
5,818

§ Raw data

FFLY021 65322U 25188H   26263.87209197  .00000633  00000+0  66524-4 0  99922 65322  97.7291 337.4478 0013056 160.6487 199.5231 14.92850087 58184

JSON: /api/v1/satellites/65322 · /tle

For live sub-satellite position, see the globe view (requires WebGL).

§ Visibility from observer

Set your observer location to see the next 7 days of passes ≥ 10°. The values pass through the URL so the page stays shareable.

No JS? Fill the form by hand. The geolocation button needs JavaScript.

§ Radio — SatNOGS DB

ModeDescriptionDownlinkUplink
FM S-band telemetry 2.243 GHz

1 transmitter · refreshed weekly from db.satnogs.org